Probability
13 90 97 94 90 65 39 16 3 0 0 0 0 6 6 13 16 16 16 10 6 3 3 0 0 0 0 0 0 0 0 0 0 0 0 0 0 0 0 0 0 0 0
29 97 97 97 81 58 26 3 0 3 6 3 0 3 3 10 13 13 16 6 3 3 0 0 0 0 0 0 0 0 0 0 0 0 0 0 0 0 0 0 0 0 0
52 90 97 97 81 55 19 3 0 3 3 3 3 6 6 10 6 13 10 3 3 0 0 0 0 0 0 0 0 0 0 0 0 0 0 0 0 0 0 0 0 0 0
55 71 77 90 74 45 29 3 6 6 0 3 3 6 6 10 10 3 3 3 0 0 0 0 0 0 0 0 0 0 0 0 0 0 0 0 0 0 0 0 0 0 0
42 52 81 87 71 55 23 10 6 10 0 0 3 6 6 3 3 3 0 0 0 0 0 0 0 0 0 0 0 0 0 0 0 0 0 0 0 0 0 0 0 0 0
32 48 81 87 65 48 29 19 16 6 0 0 0 3 3 3 0 0 0 0 0 0 0 0 0 0 0 0 0 0 0 0 0 0 0 0 0 0 0 0 0 0 0
35 61 74 90 65 42 32 19 26 16 10 0 0 0 0 0 0 0 0 0 0 0 0 0 0 0 0 0 0 0 0 0 0 0 0 0 0 0 0 0 0 0 0
55 65 68 87 74 61 29 39 29 23 19 6 0 0 0 0 0 0 0 0 0 0 0 0 0 0 0 0 0 0 0 0 0 0 0 0 0 0 0 0 0 0 0
65 61 58 48 42 48 42 42 39 29 32 23 6 0 0 0 0 0 0 0 0 0 0 0 0 0 0 0 0 0 0 0 0 0 0 0 0 0 0 0 0 0 0
58 55 29 23 13 13 6 6 6 0 13 16 6 0 0 0 0 0 0 0 0 0 0 0 0 0 0 0 0 0 0 0 0 0 0 0 0 0 0 0 0 0 0
61 48 13 13 6 10 3 0 0 0 0 0 0 0 0 0 0 0 0 0 0 0 0 0 0 0 0 0 0 0 0 0 0 0 0 0 0 0 0 0 0 0 0
52 32 13 6 0 3 0 0 0 0 0 0 0 0 0 0 0 0 0 0 0 0 0 0 0 0 0 0 0 0 0 0 0 0 0 0 0 0 0 0 0 0 0
42 39 23 6 0 0 0 0 0 0 0 0 0 0 0 0 0 0 0 0 0 0 0 0 0 0 0 0 0 0 0 0 0 0 0 0 0 0 0 0 0 0 0
48 39 35 19 0 0 3 0 0 0 0 0 0 0 0 0 0 0 0 0 0 0 0 0 0 0 0 0 0 0 0 0 0 0 0 0 0 0 0 0 0 0 0
35 29 35 26 3 0 0 0 0 0 0 0 0 0 0 0 0 0 0 0 0 0 0 0 0 0 0 0 0 0 0 0 0 0 0 0 0 0 0 0 0 0 0
26 26 29 26 6 3 0 0 0 0 0 0 0 0 0 0 0 0 0 0 0 0 0 0 0 0 0 0 0 0 0 0 0 0 0 0 0 0 0 0 0 0 0
23 19 23 19 10 3 3 0 0 0 0 0 0 0 0 0 0 0 0 0 0 0 0 0 0 0 0 0 0 0 0 0 0 0 0 0 0 0 0 0 0 0 0
19 26 32 39 16 6 6 3 0 0 0 0 0 0 0 0 0 0 0 0 0 0 0 0 0 0 0 0 0 0 0 0 0 0 0 0 0 0 0 0 0 0 0
23 23 32 35 19 6 3 0 0 0 0 0 0 0 0 0 0 0 0 0 0 0 0 0 0 0 0 0 0 0 0 0 0 0 0 0 0 0 0 0 0 0 0
6 16 23 16 16 6 0 0 0 0 0 0 0 0 0 0 0 0 0 0 0 0 0 0 0 0 0 0 0 0 0 0 0 0 0 0 0 0 0 0 0 0 0
3 6 16 16 16 10 6 3 6 0 0 0 0 0 0 0 0 0 0 0 0 0 0 0 0 0 0 0 0 0 0 0 0 0 0 0 0 0 0 0 0 0 0
0 0 6 16 19 10 10 0 0 0 0 0 0 0 0 0 0 0 0 0 0 0 0 0 0 0 0 0 0 0 0 0 0 0 0 0 0 0 0 0 0 0 0
6 10 16 13 13 10 13 3 0 0 0 0 0 0 0 0 0 0 0 0 0 0 0 0 0 0 0 0 0 0 0 0 0 0 0 0 0 0 0 0 0 0 0
6 10 13 23 23 13 13 6 3 0 0 0 0 0 0 0 0 0 0 0 0 0 0 0 0 0 0 0 0 0 0 0 0 0 0 0 0 0 0 0 0 0 0
3 6 6 16 23 16 10 10 6 3 3 0 0 0 0 0 0 0 0 0 0 0 0 0 0 0 0 0 0 0 0 0 0 0 0 0 0 0 0 0 0 0 0
3 3 3 6 10 6 13 13 10 3 3 0 0 0 0 0 0 0 0 0 0 0 0 0 0 0 0 0 0 0 0 0 0 0 0 0 0 0 0 0 0 0 0
Height
5883 5885 5886 5888 5889 5890 5890 5891 5892 5893 5893 5894 5894 5894 5895 5895 5895 5895 5895 5894 5894 5893 5893 5892 5892 5891 5890 5889 5888 5888 5887 5886 5885 5884 5882 5881 5880 5879 5877 5876 5875 5873 5871
5881 5883 5885 5886 5887 5888 5889 5890 5891 5892 5893 5893 5893 5894 5894 5894 5894 5894 5894 5894 5893 5893 5892 5892 5891 5891 5890 5889 5888 5887 5886 5886 5885 5883 5882 5881 5880 5878 5877 5875 5874 5872 5870
5879 5881 5882 5884 5886 5887 5888 5889 5890 5891 5892 5892 5893 5893 5893 5893 5894 5893 5893 5893 5893 5892 5892 5891 5891 5890 5889 5889 5888 5887 5886 5885 5884 5883 5882 5880 5879 5878 5876 5875 5873 5871 5869
5876 5878 5880 5882 5884 5885 5887 5888 5889 5890 5890 5891 5892 5892 5892 5893 5893 5893 5892 5892 5892 5892 5891 5891 5890 5890 5889 5888 5887 5886 5885 5885 5884 5882 5881 5880 5878 5877 5875 5874 5872 5870 5868
5873 5875 5878 5880 5881 5883 5885 5886 5887 5888 5889 5890 5890 5891 5891 5891 5892 5892 5891 5891 5891 5891 5890 5890 5889 5889 5888 5887 5887 5886 5885 5884 5883 5881 5880 5879 5877 5876 5874 5872 5871 5869 5866
5870 5872 5875 5877 5879 5881 5883 5884 5885 5887 5888 5888 5889 5890 5890 5890 5890 5890 5890 5890 5890 5890 5889 5889 5888 5888 5887 5887 5886 5885 5884 5883 5882 5880 5879 5878 5876 5875 5873 5871 5869 5867 5865
5866 5869 5872 5874 5876 5878 5880 5882 5883 5885 5886 5887 5887 5888 5888 5889 5889 5889 5889 5889 5889 5889 5888 5888 5887 5887 5886 5885 5885 5884 5883 5882 5880 5879 5878 5876 5875 5873 5871 5869 5867 5865 5863
5862 5865 5868 5871 5873 5875 5877 5879 5881 5882 5884 5884 5885 5886 5887 5887 5887 5888 5888 5887 5887 5887 5887 5886 5886 5885 5885 5884 5883 5882 5881 5880 5879 5878 5876 5875 5873 5871 5869 5867 5865 5863 5860
5858 5862 5865 5868 5870 5872 5874 5877 5878 5880 5881 5882 5883 5884 5884 5885 5885 5885 5886 5886 5885 5885 5885 5885 5884 5884 5883 5882 5882 5881 5880 5878 5877 5876 5874 5873 5871 5869 5867 5865 5862 5860 5857
5854 5858 5861 5864 5867 5869 5871 5873 5875 5877 5878 5879 5880 5881 5882 5882 5883 5883 5883 5883 5883 5883 5883 5882 5882 5882 5881 5880 5879 5879 5877 5876 5875 5874 5872 5870 5869 5867 5864 5862 5860 5857 5854
5850 5854 5857 5860 5863 5866 5868 5870 5872 5873 5875 5876 5877 5878 5879 5880 5880 5881 5881 5881 5881 5881 5880 5880 5879 5879 5878 5878 5877 5876 5875 5874 5872 5871 5869 5867 5865 5863 5861 5859 5856 5854 5851
5846 5850 5853 5856 5859 5862 5864 5866 5868 5870 5872 5873 5874 5875 5876 5876 5877 5878 5878 5878 5878 5878 5877 5877 5877 5876 5875 5875 5874 5873 5872 5870 5869 5868 5866 5864 5862 5860 5858 5855 5852 5850 5847
5841 5845 5849 5852 5855 5858 5860 5862 5864 5866 5868 5869 5870 5872 5872 5873 5873 5874 5875 5875 5875 5875 5874 5874 5873 5873 5872 5871 5870 5869 5868 5867 5865 5864 5862 5860 5858 5856 5853 5851 5848 5845 5842
5836 5840 5844 5847 5850 5853 5856 5858 5860 5862 5864 5865 5867 5868 5868 5869 5870 5870 5871 5871 5871 5871 5870 5870 5870 5869 5868 5867 5866 5865 5864 5862 5861 5859 5858 5856 5854 5851 5849 5846 5843 5840 5837
5832 5835 5838 5842 5845 5848 5851 5854 5856 5857 5859 5861 5862 5863 5864 5865 5865 5866 5866 5867 5867 5866 5866 5866 5865 5865 5864 5863 5862 5861 5859 5858 5856 5855 5853 5851 5849 5846 5844 5841 5838 5835 5832
5826 5830 5834 5837 5840 5843 5846 5848 5851 5852 5854 5856 5857 5858 5859 5860 5861 5861 5862 5862 5862 5862 5861 5861 5861 5860 5859 5858 5857 5856 5854 5853 5851 5850 5848 5845 5843 5841 5838 5835 5832 5829 5826
5820 5824 5828 5831 5835 5838 5840 5843 5845 5847 5849 5850 5852 5853 5854 5855 5855 5856 5856 5856 5856 5856 5856 5856 5855 5855 5854 5853 5852 5850 5849 5847 5846 5844 5842 5840 5837 5835 5832 5829 5826 5823 5820
5814 5818 5822 5825 5828 5832 5834 5836 5839 5841 5843 5844 5846 5847 5848 5848 5849 5850 5850 5850 5851 5851 5850 5850 5849 5849 5848 5847 5846 5844 5843 5841 5839 5837 5836 5833 5831 5828 5825 5822 5819 5816 5813
5807 5811 5815 5818 5822 5825 5827 5829 5832 5834 5836 5838 5839 5840 5841 5842 5842 5843 5843 5844 5844 5844 5844 5843 5843 5842 5841 5840 5839 5838 5836 5834 5832 5830 5828 5826 5823 5821 5818 5815 5812 5809 5805
5800 5804 5808 5811 5814 5816 5819 5821 5824 5827 5829 5830 5832 5833 5834 5835 5835 5836 5836 5836 5836 5836 5836 5836 5835 5835 5834 5833 5832 5830 5828 5826 5824 5822 5820 5818 5815 5813 5810 5807 5804 5801 5797
5792 5796 5799 5803 5806 5808 5811 5814 5816 5819 5821 5823 5824 5825 5826 5827 5827 5828 5828 5828 5828 5828 5828 5828 5827 5827 5825 5824 5824 5822 5820 5818 5816 5814 5812 5809 5807 5804 5801 5798 5795 5792 5789
5784 5788 5791 5795 5797 5800 5803 5805 5808 5810 5812 5814 5815 5817 5818 5818 5819 5819 5819 5820 5820 5820 5820 5819 5819 5818 5817 5815 5814 5813 5812 5811 5808 5805 5802 5800 5797 5795 5792 5789 5786 5783 5780
5776 5780 5783 5786 5789 5792 5794 5797 5799 5801 5803 5805 5806 5808 5808 5809 5810 5810 5810 5810 5810 5810 5810 5810 5809 5808 5808 5806 5805 5803 5802 5801 5799 5797 5793 5790 5788 5785 5783 5780 5777 5774 5771
5768 5771 5774 5778 5780 5783 5785 5787 5790 5792 5794 5796 5797 5798 5798 5799 5800 5800 5801 5801 5801 5800 5800 5800 5799 5798 5798 5797 5795 5793 5792 5790 5788 5787 5785 5781 5778 5776 5773 5770 5768 5765 5762
5758 5762 5765 5768 5771 5773 5775 5778 5780 5782 5784 5786 5787 5788 5788 5789 5789 5790 5790 5790 5790 5790 5790 5789 5788 5788 5787 5786 5784 5783 5781 5779 5777 5775 5774 5771 5768 5765 5763 5760 5758 5755 5752
5749 5752 5755 5758 5761 5763 5765 5767 5770 5772 5773 5775 5776 5777 5778 5778 5779 5779 5779 5779 5779 5779 5779 5778 5778 5777 5776 5775 5773 5772 5770 5768 5766 5763 5762 5760 5757 5755 5752 5750 5747 5745 5742
Wind_Speed
16 14 12 11 9 8 7 6 5 6 5 5 5 5 5 5 5 5 5 4 4 4 4 3 3 2 3 3 3 3 4 4 5 6 7 8 9 10 11 12 13 13 14
17 15 14 12 10 9 8 7 7 7 6 6 6 6 6 6 6 6 5 5 5 4 4 3 3 3 3 3 3 3 4 4 5 6 7 8 9 10 11 12 13 14 15
19 17 15 14 12 11 10 9 8 8 8 8 7 7 7 7 6 6 6 5 5 4 4 3 3 3 3 3 3 3 3 4 5 6 7 8 9 11 12 13 14 15 16
21 19 17 15 13 12 11 10 10 9 9 9 8 8 8 8 7 7 6 6 5 5 4 4 4 4 3 3 3 3 4 4 5 6 7 9 10 11 12 13 14 15 17
22 20 18 16 15 14 12 12 11 11 10 10 10 10 9 9 8 8 7 7 6 5 5 5 5 4 4 4 4 4 4 5 6 7 8 9 10 12 13 14 15 16 18
24 22 20 18 16 15 14 13 12 12 12 12 11 11 11 10 9 9 8 8 7 6 6 6 6 5 5 5 4 5 5 6 6 7 8 10 11 12 14 15 16 18 19
25 23 21 19 18 16 15 15 14 13 13 13 13 12 12 12 11 10 10 9 8 8 7 7 7 6 6 6 6 6 7 7 8 8 9 10 12 13 15 16 17 19 20
26 24 23 21 19 18 17 16 15 15 14 14 14 14 14 13 13 12 11 10 10 9 9 8 8 8 7 7 7 7 8 8 9 10 11 12 13 14 16 17 19 20 21
27 26 24 22 20 19 18 18 17 16 16 16 16 15 15 15 14 13 13 12 12 11 10 10 10 9 9 9 9 9 10 10 11 12 12 13 15 16 17 19 20 22 23
28 27 25 24 22 20 19 19 18 18 17 17 17 17 16 16 16 15 14 14 13 13 12 12 11 11 11 11 11 11 12 12 13 14 14 15 17 18 19 20 22 23 24
30 28 26 24 23 22 21 20 19 19 19 19 18 18 18 18 17 16 16 15 15 14 14 13 13 13 13 13 13 14 14 15 15 16 17 17 19 20 21 22 24 25 26
31 29 28 26 24 23 22 21 20 20 20 20 20 20 20 19 18 18 18 17 17 16 16 15 15 15 15 15 16 16 17 17 18 18 19 20 21 22 23 25 26 27 28
33 32 30 28 26 24 23 22 22 21 21 21 21 21 21 20 20 20 19 19 19 18 18 18 18 18 18 18 18 19 19 20 20 21 21 22 23 24 25 27 28 29 30
35 34 32 29 27 26 25 24 23 22 22 22 22 22 23 22 22 22 21 21 21 21 20 20 20 20 20 21 21 21 22 22 23 24 24 25 26 27 28 29 30 31 32
36 35 33 30 28 27 26 26 25 24 24 24 24 24 24 24 24 23 23 23 23 23 23 23 23 23 23 23 24 24 25 25 25 26 27 27 28 29 30 31 32 33 33
37 35 34 32 30 29 29 28 27 27 26 25 25 26 26 26 26 26 26 26 26 25 25 25 25 25 25 25 26 26 27 27 28 28 29 29 30 32 33 33 34 35 35
38 36 35 34 33 32 31 30 29 29 29 28 28 28 28 28 28 28 28 28 28 27 27 27 28 28 28 28 28 28 29 30 30 30 31 32 32 34 35 36 36 37 37
40 39 37 36 35 34 33 32 32 31 31 30 30 30 30 30 30 30 30 30 30 30 30 30 30 30 30 30 30 31 31 32 33 33 34 35 35 36 37 38 38 38 38
42 41 40 39 37 37 36 36 35 34 34 33 33 33 32 32 32 32 32 33 32 32 32 32 32 32 32 33 33 33 34 35 36 37 37 38 38 39 40 40 40 40 39
44 43 43 41 40 40 39 38 38 37 36 36 36 35 35 35 35 34 34 34 34 34 34 35 35 35 35 36 36 36 36 37 38 38 39 40 41 41 42 42 42 41 40
45 45 45 44 43 43 42 41 41 40 40 40 39 38 37 37 37 37 36 36 37 37 37 37 38 38 38 39 39 39 39 39 40 41 42 43 43 44 44 44 44 43 42
46 47 46 46 45 44 44 43 44 44 43 42 41 41 41 40 40 40 39 39 39 39 39 40 40 40 40 41 41 41 40 41 42 43 44 45 45 45 45 45 44 43 42
46 46 47 47 47 47 46 46 45 45 45 44 43 43 42 42 42 42 42 43 43 43 42 42 42 42 42 43 43 44 44 44 44 44 45 45 46 45 45 45 44 43 42
47 47 48 48 48 49 49 48 48 48 47 46 46 45 45 45 45 45 45 46 46 45 45 44 44 44 44 44 45 46 46 46 47 46 46 46 45 45 45 44 43 42 42
48 48 49 49 49 50 50 50 49 49 49 49 48 48 48 47 47 46 46 47 47 47 46 46 46 46 46 46 47 47 47 48 48 48 47 46 45 45 44 44 43 42 42
47 48 49 49 49 50 50 50 51 50 50 49 50 50 49 49 49 48 48 48 48 48 47 47 47 47 47 47 47 48 48 48 48 48 47 46 45 45 44 44 43 43 42
Wind_Direction
219 220 221 223 222 219 221 226 228 229 232 234 234 230 233 240 247 255 263 269 278 285 291 296 303 315 333 347 359 9 15 18 19 21 20 17 13 9 7 3 1 358 357
219 220 222 224 223 221 222 226 229 228 231 233 231 229 234 240 247 253 260 265 273 278 284 288 295 309 323 333 346 1 10 15 15 15 13 12 8 5 2 359 356 354 352
219 221 223 223 223 222 224 227 228 227 229 230 228 230 236 242 247 251 257 263 268 271 278 280 288 302 313 319 332 351 2 6 7 6 4 2 0 358 356 354 352 350 348
218 220 221 222 222 222 224 227 228 228 228 229 231 233 236 240 243 248 254 258 260 263 269 273 282 293 300 306 319 336 345 349 352 354 354 354 354 353 352 351 348 347 345
217 219 221 222 223 223 225 227 228 229 229 230 231 233 234 238 240 244 249 252 255 259 265 270 276 283 287 294 307 321 330 336 341 344 347 348 348 348 348 347 346 344 343
218 220 222 222 223 223 225 226 228 230 231 231 232 233 235 238 241 243 247 250 253 258 262 267 272 275 278 285 297 308 317 324 329 334 338 341 343 344 344 344 342 341 340
217 220 222 223 224 225 225 227 229 231 232 233 233 234 237 240 242 243 246 249 253 257 260 265 269 272 274 281 291 301 309 316 322 326 331 334 336 338 339 339 339 338 336
218 220 221 223 225 226 226 228 230 232 234 235 236 237 240 242 243 244 247 250 253 257 260 264 268 271 275 282 288 296 303 310 315 319 324 327 329 331 333 334 335 334 334
218 220 222 224 226 226 227 229 231 234 237 238 239 240 242 244 245 245 248 251 254 257 260 264 268 272 276 281 287 292 299 305 310 314 317 320 323 326 328 330 331 331 331
218 221 222 224 226 227 229 231 233 236 239 240 241 242 244 246 247 247 249 252 255 257 260 263 268 273 277 282 287 291 296 300 305 309 312 315 318 321 323 325 327 328 327
220 222 225 226 227 229 231 233 235 237 240 241 242 244 246 248 248 250 252 254 257 260 262 265 269 273 277 282 286 290 293 297 302 305 309 312 314 317 319 321 323 324 324
222 223 226 228 230 232 233 235 237 239 241 243 245 247 249 250 251 253 255 257 260 263 265 268 271 275 278 282 286 289 293 297 300 303 306 308 310 313 316 317 319 320 321
224 225 226 228 231 234 236 238 240 242 243 245 247 250 251 253 254 255 257 259 261 265 267 270 273 277 280 284 286 289 292 296 298 301 304 305 307 310 312 314 316 317 318
225 226 225 227 231 235 238 240 243 245 246 247 249 252 253 255 257 258 260 262 264 266 269 272 275 278 281 284 287 290 292 295 297 300 302 304 306 308 310 312 313 314 315
227 227 225 228 231 236 239 241 244 247 248 250 251 252 254 256 258 260 262 263 265 267 270 273 276 278 282 285 288 290 293 295 297 298 300 302 304 306 308 310 310 311 312
229 230 228 229 232 237 240 243 245 248 250 252 254 255 256 257 259 261 262 264 267 269 271 274 276 279 282 284 287 289 291 293 295 296 298 300 302 304 306 307 308 309 310
230 231 232 232 235 239 242 245 247 250 253 255 256 257 258 259 260 262 264 266 269 271 273 275 276 278 280 282 285 287 289 291 293 294 296 298 300 302 304 305 306 307 308
233 233 234 235 237 239 243 246 248 251 253 256 258 259 260 262 263 264 265 267 269 271 273 274 276 279 280 282 284 286 288 290 292 293 295 297 298 299 301 303 304 305 305
236 236 237 238 240 241 244 248 251 253 255 257 259 261 262 263 264 266 267 268 269 271 273 274 277 279 280 282 284 285 287 290 291 293 294 296 297 298 299 301 302 303 304
237 238 239 240 242 243 244 247 250 253 256 258 259 261 263 264 266 268 270 270 270 272 274 275 277 278 280 282 284 285 287 289 291 293 294 294 295 297 298 300 301 302 303
238 240 241 242 244 245 247 249 252 254 257 259 259 261 263 264 265 267 269 270 272 273 274 276 277 278 280 281 283 284 286 287 289 291 292 293 294 296 297 299 300 300 301
240 241 242 244 245 247 248 251 252 254 256 258 260 261 263 264 265 266 268 270 272 273 275 277 278 278 280 281 283 283 284 286 288 290 292 293 294 295 296 297 298 298 298
240 241 243 244 246 248 250 250 252 254 256 257 259 261 263 264 265 265 268 270 272 274 275 276 277 278 280 281 283 284 284 285 287 288 290 291 292 293 294 295 296 296 296
241 242 243 245 247 249 250 251 252 255 256 258 260 262 264 264 265 267 268 270 272 273 275 276 277 278 279 281 283 284 285 286 287 287 287 289 289 290 292 292 293 293 294
242 243 245 246 248 249 251 253 254 256 258 259 261 262 263 265 266 267 269 270 271 273 275 276 278 278 279 281 283 284 285 286 288 288 288 288 288 290 291 291 292 292 293
242 244 245 247 249 250 252 254 255 257 259 260 261 262 264 264 265 267 269 270 272 273 274 277 278 279 280 281 282 283 285 286 287 287 287 287 288 289 290 290 291 291 292